TimeEST,TemperatureF,Dew PointF,Humidity,Sea Level PressureIn,VisibilityMPH,Wind Direction,Wind SpeedMPH,Gust SpeedMPH,PrecipitationIn,Events,Conditions,WindDirDegrees,DateUTC
12:15 AM,37.4,28.4,70,29.88,10.0,WSW,8.1,-,N/A,,Mostly Cloudy,240,2012-12-30 05:15:00
12:35 AM,37.4,28.4,70,29.88,10.0,WSW,5.8,-,N/A,,Scattered Clouds,250,2012-12-30 05:35:00
12:55 AM,37.4,28.4,70,29.88,10.0,WSW,5.8,-,N/A,,Clear,240,2012-12-30 05:55:00
1:15 AM,37.4,28.4,70,29.89,10.0,WSW,8.1,-,N/A,,Clear,250,2012-12-30 06:15:00
1:55 AM,37.4,28.4,70,29.92,10.0,WSW,10.4,-,N/A,,Mostly Cloudy,250,2012-12-30 06:55:00
2:15 AM,37.4,28.4,70,29.93,10.0,WSW,11.5,16.1,N/A,,Overcast,250,2012-12-30 07:15:00
2:35 AM,37.4,28.4,70,29.94,10.0,WSW,9.2,-,N/A,,Mostly Cloudy,250,2012-12-30 07:35:00
2:55 AM,37.4,28.4,70,29.96,10.0,West,8.1,-,N/A,,Mostly Cloudy,260,2012-12-30 07:55:00
3:15 AM,37.4,26.6,65,29.96,10.0,West,9.2,-,N/A,,Overcast,280,2012-12-30 08:15:00
3:35 AM,37.4,26.6,65,29.98,10.0,Calm,Calm,-,N/A,,Overcast,0,2012-12-30 08:35:00
3:55 AM,37.4,26.6,65,29.98,10.0,Calm,Calm,-,N/A,,Overcast,0,2012-12-30 08:55:00
4:15 AM,37.4,24.8,60,29.98,10.0,Calm,Calm,-,N/A,,Overcast,0,2012-12-30 09:15:00
4:35 AM,37.4,24.8,60,29.98,10.0,South,3.5,-,N/A,,Mostly Cloudy,190,2012-12-30 09:35:00
4:55 AM,35.6,24.8,65,30.00,10.0,Calm,Calm,-,N/A,,Mostly Cloudy,0,2012-12-30 09:55:00
5:15 AM,35.6,23.0,60,30.00,10.0,Calm,Calm,-,N/A,,Scattered Clouds,0,2012-12-30 10:15:00
5:35 AM,35.6,23.0,60,30.01,10.0,WSW,16.1,26.5,N/A,,Clear,250,2012-12-30 10:35:00
5:55 AM,35.6,23.0,60,30.03,10.0,West,12.7,18.4,N/A,,Clear,270,2012-12-30 10:55:00
6:15 AM,35.6,23.0,60,30.05,10.0,West,9.2,-,N/A,,Scattered Clouds,260,2012-12-30 11:15:00
6:35 AM,35.6,23.0,60,30.07,10.0,West,9.2,-,N/A,,Mostly Cloudy,260,2012-12-30 11:35:00
6:55 AM,35.6,23.0,60,30.09,10.0,WSW,12.7,-,N/A,,Scattered Clouds,250,2012-12-30 11:55:00
7:15 AM,35.6,23.0,60,30.12,10.0,West,11.5,20.7,N/A,,Mostly Cloudy,270,2012-12-30 12:15:00
7:35 AM,35.6,21.2,56,30.13,10.0,West,9.2,19.6,N/A,,Overcast,280,2012-12-30 12:35:00
7:55 AM,35.6,23.0,60,30.14,10.0,Calm,Calm,-,N/A,,Mostly Cloudy,0,2012-12-30 12:55:00
8:15 AM,35.6,23.0,60,30.14,10.0,West,15.0,24.2,N/A,,Scattered Clouds,280,2012-12-30 13:15:00
8:35 AM,35.6,23.0,60,30.16,10.0,West,17.3,21.9,N/A,,Mostly Cloudy,270,2012-12-30 13:35:00
8:55 AM,35.6,23.0,60,30.17,10.0,WNW,13.8,25.3,N/A,,Mostly Cloudy,290,2012-12-30 13:55:00
9:15 AM,37.4,23.0,56,30.19,10.0,West,12.7,21.9,N/A,,Mostly Cloudy,270,2012-12-30 14:15:00
9:35 AM,37.4,23.0,56,30.20,10.0,WNW,15.0,24.2,N/A,,Overcast,300,2012-12-30 14:35:00
9:55 AM,39.2,23.0,52,30.21,10.0,WNW,12.7,20.7,N/A,,Mostly Cloudy,290,2012-12-30 14:55:00
10:15 AM,39.2,23.0,52,30.22,10.0,West,11.5,17.3,N/A,,Mostly Cloudy,270,2012-12-30 15:15:00
10:35 AM,41.0,23.0,49,30.23,10.0,WNW,12.7,18.4,N/A,,Overcast,290,2012-12-30 15:35:00
10:55 AM,41.0,23.0,49,30.23,10.0,WNW,15.0,21.9,N/A,,Overcast,300,2012-12-30 15:55:00
11:15 AM,41.0,23.0,49,30.23,10.0,WNW,5.8,-,N/A,,Mostly Cloudy,290,2012-12-30 16:15:00
11:35 AM,42.8,21.2,42,30.23,10.0,WNW,18.4,23.0,N/A,,Mostly Cloudy,300,2012-12-30 16:35:00
11:55 AM,41.0,21.2,45,30.22,10.0,NW,13.8,24.2,N/A,,Scattered Clouds,310,2012-12-30 16:55:00
12:15 PM,42.8,21.2,42,30.20,10.0,WSW,16.1,20.7,N/A,,Clear,250,2012-12-30 17:15:00
12:35 PM,42.8,21.2,42,30.20,10.0,West,5.8,-,N/A,,Clear,260,2012-12-30 17:35:00
12:55 PM,42.8,21.2,42,30.20,10.0,NW,10.4,17.3,N/A,,Clear,320,2012-12-30 17:55:00
1:15 PM,42.8,21.2,42,30.20,10.0,WNW,8.1,18.4,N/A,,Clear,290,2012-12-30 18:15:00
1:35 PM,42.8,21.2,42,30.20,10.0,WNW,13.8,19.6,N/A,,Clear,290,2012-12-30 18:35:00
1:55 PM,42.8,21.2,42,30.21,10.0,WNW,10.4,20.7,N/A,,Clear,300,2012-12-30 18:55:00
2:15 PM,42.8,21.2,42,30.22,10.0,West,11.5,17.3,N/A,,Clear,280,2012-12-30 19:15:00
2:35 PM,42.8,21.2,42,30.22,10.0,WNW,11.5,21.9,N/A,,Clear,290,2012-12-30 19:35:00
2:55 PM,42.8,21.2,42,30.23,10.0,West,6.9,-,N/A,,Clear,270,2012-12-30 19:55:00
3:15 PM,42.8,21.2,42,30.23,10.0,WNW,8.1,-,N/A,,Clear,300,2012-12-30 20:15:00
3:35 PM,41.0,19.4,42,30.25,10.0,WNW,3.5,-,N/A,,Clear,300,2012-12-30 20:35:00
3:55 PM,41.0,21.2,45,30.26,10.0,Calm,Calm,-,N/A,,Clear,0,2012-12-30 20:55:00
4:15 PM,41.0,19.4,42,30.27,10.0,SSW,6.9,-,N/A,,Clear,210,2012-12-30 21:15:00
4:35 PM,41.0,19.4,42,30.29,10.0,SW,8.1,-,N/A,,Clear,230,2012-12-30 21:35:00
4:55 PM,37.4,19.4,48,30.29,10.0,SW,6.9,-,N/A,,Clear,230,2012-12-30 21:55:00
5:15 PM,37.4,19.4,48,30.30,10.0,West,5.8,-,N/A,,Clear,270,2012-12-30 22:15:00
5:35 PM,35.6,19.4,52,30.30,10.0,West,4.6,-,N/A,,Clear,260,2012-12-30 22:35:00
5:55 PM,33.8,21.2,60,30.29,10.0,Calm,Calm,-,N/A,,Clear,0,2012-12-30 22:55:00
6:15 PM,32.0,23.0,69,30.31,10.0,Calm,Calm,-,N/A,,Clear,0,2012-12-30 23:15:00
6:35 PM,30.2,23.0,75,30.30,10.0,Calm,Calm,-,N/A,,Clear,0,2012-12-30 23:35:00
6:55 PM,30.2,23.0,75,30.29,10.0,Calm,Calm,-,N/A,,Clear,0,2012-12-30 23:55:00
7:15 PM,28.4,23.0,80,30.30,10.0,Calm,Calm,-,N/A,,Clear,0,2012-12-31 00:15:00
7:35 PM,30.2,23.0,75,30.30,10.0,Calm,Calm,-,N/A,,Clear,0,2012-12-31 00:35:00
7:55 PM,28.4,23.0,80,30.32,10.0,Calm,Calm,-,N/A,,Clear,0,2012-12-31 00:55:00
8:15 PM,28.4,23.0,80,30.32,10.0,Calm,Calm,-,N/A,,Clear,0,2012-12-31 01:15:00
8:35 PM,26.6,23.0,86,30.31,10.0,Calm,Calm,-,N/A,,Clear,0,2012-12-31 01:35:00
8:55 PM,26.6,21.2,80,30.33,10.0,Calm,Calm,-,N/A,,Clear,0,2012-12-31 01:55:00
9:15 PM,26.6,23.0,86,30.34,10.0,Calm,Calm,-,N/A,,Clear,0,2012-12-31 02:15:00
9:35 PM,26.6,21.2,80,30.34,10.0,Calm,Calm,-,N/A,,Clear,0,2012-12-31 02:35:00
9:55 PM,24.8,21.2,86,30.34,10.0,Calm,Calm,-,N/A,,Clear,0,2012-12-31 02:55:00
10:15 PM,24.8,21.2,86,30.34,10.0,Calm,Calm,-,N/A,,Clear,0,2012-12-31 03:15:00
10:35 PM,23.0,21.2,93,30.34,10.0,Calm,Calm,-,N/A,,Clear,0,2012-12-31 03:35:00
10:55 PM,24.8,21.2,86,30.36,10.0,Calm,Calm,-,N/A,,Clear,0,2012-12-31 03:55:00
11:15 PM,23.0,21.2,93,30.34,10.0,South,3.5,-,N/A,,Clear,180,2012-12-31 04:15:00
11:35 PM,23.0,21.2,93,30.34,10.0,Calm,Calm,-,N/A,,Clear,0,2012-12-31 04:35:00
11:55 PM,23.0,21.2,93,30.34,10.0,Calm,Calm,-,N/A,,Clear,0,2012-12-31 04:55:00